AO-07 1 07530U 74089B 25289.12712507 -.00000040 00000-0 42857-4 0 9999 2 07530 101.9989 294.7811 0011953 236.5290 212.6997 12.53692377329939 UO-11 1 14781U 84021B 25289.17375385 .00002523 00000-0 26835-3 0 9990 2 14781 97.7716 253.1372 0006022 272.7412 87.3117 14.89844618220787 AO-27 1 22825U 93061C 25289.09846308 .00000204 00000-0 94906-4 0 9990 2 22825 98.7226 351.2065 0009521 96.3175 263.9092 14.30845571672098 FO-29 1 24278U 96046B 25289.10438043 .00000008 00000-0 44588-4 0 9998 2 24278 98.5526 165.9597 0350178 9.7025 351.0653 13.53256851440155 NOAA-15 1 25338U 98030A 25289.12507727 .00000225 00000-0 11011-3 0 9994 2 25338 98.5287 311.1268 0009948 349.2950 10.8018 14.27036038426482 GO-32 1 25397U 98043D 25289.10493220 .00000176 00000-0 96112-4 0 9994 2 25397 98.9867 271.0005 0001326 152.0420 208.0829 14.24352647416587 ISS 1 25544U 98067A 25289.20252440 .00012084 00000-0 22595-3 0 9996 2 25544 51.6331 67.3223 0004212 296.3293 63.7263 15.49149277533936 NO-44 1 26931U 01043C 25289.10868706 .00000224 00000-0 11475-3 0 9990 2 26931 67.0496 155.5103 0007110 273.4731 86.5558 14.31805956255507 SO-50 1 27607U 02058C 25289.05152463 .00002183 00000-0 28134-3 0 9994 2 27607 64.5529 163.8508 0068462 307.3952 52.0933 14.82086912228264 CO-55 1 27844U 03031E 25289.11940074 .00000503 00000-0 23768-3 0 9991 2 27844 98.6789 295.7598 0009778 167.9216 192.2199 14.24106834156932 CO-57 1 27848U 03031J 25288.98784492 .00000483 00000-0 23207-3 0 9994 2 27848 98.6817 295.5373 0009321 185.9504 174.1565 14.23425961156638 RS-22 1 27939U 03042A 25289.17895147 .00001813 00000-0 29222-3 0 9990 2 27939 98.3378 101.8592 0010759 327.5039 151.9971 14.72720942179623 CO-58 1 28895U 05043F 25289.12740728 .00002716 00000-0 44504-3 0 9997 2 28895 98.2677 75.2618 0013355 258.6656 101.3049 14.71538815 65841 CO-65 1 32785U 08021C 25289.18546005 .00008766 00000-0 60485-3 0 9994 2 32785 97.8018 261.5258 0011317 128.1232 232.1016 15.05986525948429 CO-66 1 32791U 08021J 25289.05365991 .00021248 00000-0 91752-3 0 9991 2 32791 97.7406 272.3484 0006406 86.9451 273.2518 15.22512741950019 RS-30 1 32953U 08025A 25289.16834119 .00000027 00000-0 12260-3 0 9999 2 32953 82.5022 147.2334 0019706 122.6793 237.6190 12.43169395789375 NOAA-19 1 33591U 09005A 25289.18471644 .00000080 00000-0 66780-4 0 9995 2 33591 98.9841 354.5300 0013724 4.9335 355.1970 14.13418168860015 SRMSAT 1 37841U 11058D 25288.83716199 .00000522 00000-0 13994-3 0 9995 2 37841 19.9713 98.3809 0011801 35.7874 16.4418 14.11481236723251 ZACUBE-1 1 39417U 13066B 25289.10323897 .00010124 00000-0 84372-3 0 9994 2 39417 97.7960 245.6335 0042128 346.1228 13.8833 14.98123126644147 Delfi-N3xt 1 39428U 13066N 25289.10064091 .00012834 00000-0 12415-2 0 9992 2 39428 97.8287 205.4149 0079691 297.6946 61.6202 14.90507842638205 GOMX-1 1 39430U 13066Q 25289.18506043 .00003443 00000-0 53129-3 0 9995 2 39430 97.6670 139.9081 0132003 140.0876 221.0127 14.68218205634096 LO-74 1 39440U 13066AA 25289.17805610 .00005350 00000-0 52630-3 0 9992 2 39440 97.8604 232.9957 0062347 114.6097 246.1633 14.91059444640593 AO-73 1 39444U 13066AE 25289.15420520 .00013292 00000-0 93662-3 0 9991 2 39444 97.7981 251.8142 0038144 315.3009 44.5144 15.04542301642909 DTUSAT-2 1 40030U 14033W 25289.19012720 .00011735 00000-0 71860-3 0 9998 2 40030 98.0703 267.4951 0008535 1.4979 358.6273 15.10340626615791 EO-80 1 40032U 14033Y 25289.07093218 .00010895 00000-0 66636-3 0 9999 2 40032 98.0587 266.8452 0005979 293.7264 66.3336 15.10420729615756 LILACSAT-2 1 40908U 15049K 25289.16841531 .00018861 00000-0 43788-3 0 9992 2 40908 97.4999 312.8562 0010221 64.8732 295.3574 15.42366576558023 IO-86 1 40931U 15052B 25151.18580175 .00001241 00000-0 78118-4 0 9996 2 40931 6.0006 24.0987 0012733 338.8432 21.1169 14.78805930523159 Horyu-4 1 41340U 16012D 25288.24025146 .00042438 00000-0 88690-3 0 9996 2 41340 30.9960 349.6354 0003195 321.6133 38.4287 15.44239911532485 Lapan A3 1 41603U 16040E 25289.18697765 .00005476 00000-0 18560-3 0 9995 2 41603 97.1431 288.8634 0011342 159.7538 200.4156 15.30891827517453 CAS-2T 1 41847U 16066G 25289.11205192 .00003050 00000-0 43714-3 0 9990 2 41847 98.4095 2.4146 0345352 149.3731 212.8129 14.43892940469567 CAS-4B 1 42759U 17034B 25286.97241530 .03437790 89859-5 10544-2 0 9999 2 42759 42.9888 273.3261 0008257 129.3938 230.7682 16.25684504462550 CAS-4A 1 42761U 17034D 25281.34159269 .04203186 90411-5 12507-2 0 9993 2 42761 42.9927 303.5081 0008135 81.2710 278.9099 16.26032227461692 TechnoSat 1 42829U 17042E 25289.14350344 .00006232 00000-0 46925-3 0 9991 2 42829 97.4003 91.8690 0018240 206.1935 153.8370 15.02712591450025 AO-91 1 43017U 17073E 25288.18435494 .00011043 00000-0 53512-3 0 9994 2 43017 97.5029 155.7692 0167581 91.0179 271.0254 15.07091876428413 S-Net D 1 43186U 18014G 25289.18123919 .00006621 00000-0 37498-3 0 9995 2 43186 97.5482 190.7801 0010163 132.4182 227.7911 15.13309837421812 S-Net B 1 43187U 18014H 25289.18839464 .00006883 00000-0 38987-3 0 9999 2 43187 97.5489 190.7649 0010965 129.0144 231.2065 15.13287155421818 S-Net A 1 43188U 18014J 25289.18117086 .00006766 00000-0 38300-3 0 9998 2 43188 97.5495 190.9256 0010803 129.6400 230.5786 15.13315134421815 S-Net C 1 43189U 18014K 25289.19114742 .00006853 00000-0 38807-3 0 9995 2 43189 97.5513 190.9713 0012434 124.2581 235.9829 15.13280515420368 Ten-Koh 1 43677U 18084G 25289.13477603 .00003152 00000-0 25014-3 0 9991 2 43677 98.0722 106.4836 0008848 188.7097 171.3973 15.01268950379527 PO-101 1 43678U 18084H 25289.18708936 .00004695 00000-0 39243-3 0 9995 2 43678 98.1074 110.3316 0007367 202.9535 157.1358 14.99005594379648 QO-100 1 43700U 18090A 25289.10461521 .00000131 00000-0 00000 0 0 9992 2 43700 0.0177 236.8327 0002055 11.1037 200.4227 1.00272698 25220 MinXSS-2 1 43758U 18099A 25289.10179130 .00029017 00000-0 97627-3 0 9995 2 43758 97.4882 355.8319 0011402 67.1257 293.1186 15.30689602376597 AO-95 1 43770U 18099N 25289.15919920 .00012584 00000-0 58660-3 0 9998 2 43770 97.4773 345.9240 0011443 121.6147 238.6206 15.19959936376068 SNUSat 2 1 43782U 18099AA 25289.09401117 .00012295 00000-0 62760-3 0 9993 2 43782 97.4453 341.5223 0012870 71.8763 288.3871 15.16782511375962 SnugLite 1 43784U 18099AC 25289.09458791 .00015186 00000-0 70059-3 0 9997 2 43784 97.4267 341.3851 0004637 78.2469 281.9286 15.20321838376144 ITASat 1 1 43786U 18099AE 25289.12003705 .00009648 00000-0 52143-3 0 9994 2 43786 97.4421 340.6574 0015217 119.2868 240.9888 15.14800239375903 EAGLET 1 1 43790U 18099AJ 25289.14534712 .00005760 00000-0 35483-3 0 9997 2 43790 97.4624 340.1690 0013348 106.5610 253.7087 15.10286544375461 ESEO 1 43792U 18099AL 25289.10604521 .00002556 00000-0 19309-3 0 9990 2 43792 97.4342 331.6275 0014815 86.5899 273.7021 15.03153455375129 JO-97 1 43803U 18099AX 25289.09475443 .00018847 00000-0 77190-3 0 9992 2 43803 97.4518 347.1806 0007993 63.0370 297.1683 15.24314863376324 Suomi 100 1 43804U 18099AY 25289.13867795 .00015342 00000-0 68739-3 0 9999 2 43804 97.4581 346.1084 0012797 64.2676 295.9879 15.21261959376228 ISAT 1 43879U 18111D 25289.12988581 .00034478 00000-0 96967-3 0 9997 2 43879 97.5871 206.7867 0010994 98.6379 261.6111 15.36359914373389 UWE-4 1 43880U 18111E 25288.25823884 .00025914 00000-0 87390-3 0 9991 2 43880 97.5815 203.3504 0013350 113.9932 246.2707 15.30615856373121 Sparrow 1 43881U 18111F 25289.05848785 .00041080 00000-0 10919-2 0 9992 2 43881 97.6045 210.1477 0008717 121.6745 238.5351 15.38098620373482 Prox-1 1 44339U 19036A 25289.15388728 .00015150 00000-0 17852-2 0 9997 2 44339 23.9969 295.5262 0007412 105.0141 255.1177 14.83045796337109 Taurus 1 1 44530U 19059C 25289.19382527 .00009544 00000-0 16804-2 0 9996 2 44530 98.6202 74.9494 0008695 356.4601 3.6539 14.67773827322796 Duchifat 3 1 44854U 19089C 25289.18420297 .00150940 00000-0 14309-2 0 9999 2 44854 36.9346 249.1607 0009229 236.8595 123.1282 15.65470695323024 TO-108 1 44881U 19093C 25289.19563681 .00001682 00000-0 19877-3 0 9994 2 44881 97.7818 2.1032 0014071 163.7947 196.3721 14.85902841315173 FloripaSat 1 1 44885U 19093G 25289.23473889 .00008031 00000-0 64754-3 0 9992 2 44885 97.8089 17.1924 0010860 147.1780 213.0120 15.00120066316021 RS-44 1 44909U 19096E 25289.08283207 .00000023 00000-0 51562-4 0 9995 2 44909 82.5198 141.9267 0217506 355.3971 4.5125 12.79744557271126 UPMSat 2 1 46276U 20061E 25284.11510829 .12115553 24945-5 13983-3 0 9991 2 46276 97.2106 5.1352 0012001 257.8540 102.1421 16.49625583285008 SALSAT 1 46495U 20068K 25289.07533253 .00011054 00000-0 44646-3 0 9996 2 46495 97.8748 273.3129 0013107 78.6244 281.6464 15.24878363278097 CSS (TIANHE-1) 1 48274U 21035A 25289.21613197 .00035480 00000-0 39860-3 0 9991 2 48274 41.4666 6.2370 0003298 250.8886 109.1596 15.61887520255041 TUBIN 1 48900U 21059X 25289.08632242 .00125897 00000-0 75913-3 0 9991 2 48900 97.6736 110.1143 0001886 120.1162 240.0290 15.77302556240169 LEDSAT 1 49069U 21073D 25287.95720868 .11134366 25314-5 40586-3 0 9991 2 49069 97.3489 17.4861 0013151 272.2565 87.7231 16.42992651231488 CUTE 1 49263U 21088D 25289.16003718 .00030695 00000-0 47884-3 0 9992 2 49263 97.4399 9.6339 0007017 120.4487 239.7460 15.53765261224345 TeikyoSat 4 1 49396U 21102B 25289.08938372 .00003288 00000-0 21572-3 0 9994 2 49396 97.3989 322.8418 0013876 57.6992 302.5579 15.08252965215911 Z-Sat 1 49399U 21102E 25289.08991552 .00006078 00000-0 32183-3 0 9996 2 49399 97.3677 326.7707 0018160 23.7010 336.5055 15.15633356216437 KOSEN 1 1 49402U 21102H 25289.14565738 .00009444 00000-0 41202-3 0 9993 2 49402 97.3571 331.2602 0014791 355.2058 4.9034 15.22267793216834 HO-113 1 50466U 21131B 25289.22832954 .00000914 00000-0 29803-3 0 9999 2 50466 98.5072 17.9397 0005254 108.4392 251.7368 14.40992555199974 SNUGLITE 2 1 52899U 22065F 25289.10631269 .00002154 00000-0 42373-3 0 9996 2 52899 98.1876 69.9928 0008601 73.3379 286.8767 14.63590431175287 UmKA 1 (RS40S) 1 57172U 23091G 25289.11442167 .00008946 00000-0 45476-3 0 9995 2 57172 97.5435 343.8483 0012539 246.6237 113.3677 15.17026931126956 CubeBel-2 (EU11S) 1 57175U 23091K 25289.10056351 .00014732 00000-0 64578-3 0 9997 2 57175 97.5435 345.8457 0010070 250.5501 109.4647 15.22050180127085 ENSO 1 58470U 23185J 25286.99676613 .00315332 00000-0 14127-2 0 9997 2 58470 97.3538 7.7888 0004942 287.2111 72.8618 15.83344704104804 SONATE-2 1 59112U 24043Q 25289.13039007 .00026853 00000-0 64947-3 0 9997 2 59112 97.5287 63.4298 0009856 17.3286 342.8294 15.41064597 90097 MO-122 1 60209U 24125G 25289.16937757 .00028238 00000-0 66546-3 0 9995 2 60209 97.2619 139.6719 0017611 38.7579 321.4928 15.41721178 71727 GRBBeta 1 60237U 24128C 25289.18865154 .00004844 00000-0 35223-3 0 9997 2 60237 61.9926 350.7588 0056951 84.4334 276.3249 15.03948390 69539 Curium One 1 60242U 24128H 25289.17876425 .00008514 00000-0 55282-3 0 9990 2 60242 61.9821 346.9269 0056691 80.9062 279.8440 15.07411698 69601 ROBUSTA-3A 1 60243U 24128J 25288.49536278 .00008994 00000-0 59285-3 0 9993 2 60243 61.9896 350.6192 0056426 78.2412 282.5004 15.06816368 69481 CatSat 1 60246U 24125J 25289.08983646 .00034779 00000-0 98507-3 0 9994 2 60246 97.2432 137.2803 0037759 358.1278 1.9818 15.35464564 69663 HYPERVIEW-1G (RS66S) 1 61772U 24199AP 25289.15993403 .00039792 00000-0 92425-3 0 9993 2 61772 97.3301 158.1024 0014046 89.2899 270.9958 15.42148036 96727 AO-123 1 61781U 24199AY 25289.16186426 .00011183 00000-0 38138-3 0 9998 2 61781 97.3329 155.2877 0017041 99.7598 260.5568 15.30379993 96537 ZIMSAT 2 1 61783U 24199BA 25289.22055669 .00112619 00000-0 16882-2 0 9998 2 61783 97.3231 160.2131 0012802 82.7965 277.4744 15.54455116100021 HADES-R (SO-124) 1 62690U 25009CK 25288.91239777 .00088468 00000-0 20270-2 0 9996 2 62690 97.3977 10.0801 0001677 320.7204 39.3921 15.42436004 41827 HYDRA-T 1 62692U 25009CM 25288.67070977 .00097096 00000-0 21778-2 0 9997 2 62692 97.3973 9.9455 0001807 307.0363 53.0720 15.43037421 41793 JINJUSat 1B 1 63210U 25052A 25288.66403471 .00018332 00000-0 75633-3 0 9996 2 63210 97.4226 181.2884 0002236 198.0831 162.0327 15.24098788 32737 NUSHSAT 1 1 63211U 25052B 25289.15102676 .00018755 00000-0 75826-3 0 9998 2 63211 97.4213 181.8294 0001954 200.4301 159.6859 15.24777311 32818 TEVEL2-4 1 63213U 25052D 25289.13012957 .00021381 00000-0 87640-3 0 9996 2 63213 97.4131 181.4731 0000725 225.7856 134.3322 15.24288013 32801 TEVEL2-5 1 63214U 25052E 25289.13332578 .00021055 00000-0 86439-3 0 9994 2 63214 97.4132 181.4695 0000712 225.9648 134.1531 15.24237497 32809 TEVEL2-6 1 63215U 25052F 25289.13886719 .00017557 00000-0 72259-3 0 9993 2 63215 97.4133 181.4658 0000740 229.9327 130.1846 15.24192720 32803 TEVEL2-1 1 63217U 25052H 25288.97326113 .00019987 00000-0 82879-3 0 9991 2 63217 97.4109 181.1591 0000882 294.2019 65.9126 15.23911968 32775 TEVEL2-3 1 63218U 25052J 25289.17009047 .00017690 00000-0 73369-3 0 9992 2 63218 97.4111 181.3567 0000901 294.5824 65.5319 15.23930201 32808 TEVEL2-2 1 63219U 25052K 25289.17101519 .00017760 00000-0 73691-3 0 9996 2 63219 97.4110 181.3546 0000890 293.5022 66.6121 15.23915286 32800 TEVEL2-9 1 63237U 25052AD 25289.14596984 .00016515 00000-0 71333-3 0 9995 2 63237 97.4172 181.1114 0005269 295.9036 64.1657 15.22558265 32775 TEVEL2-7 1 63238U 25052AE 25289.15497720 .00016206 00000-0 70232-3 0 9999 2 63238 97.4174 181.1046 0005337 295.8897 64.1789 15.22448248 32777 TEVEL2-8 1 63239U 25052AF 25289.15957837 .00016629 00000-0 72113-3 0 9999 2 63239 97.4173 181.0963 0005360 296.4962 63.5724 15.22419639 32774 HYDRA-W 1 63490U 25052BL 25289.13652635 .00050512 00000-0 16046-2 0 9995 2 63490 97.4108 182.4932 0005948 286.8671 73.1918 15.32458250 32870 HADES-ICM (SO-125) 1 63492U 25052BN 25288.94565704 .00054561 00000-0 17922-2 0 9997 2 63492 97.4117 182.1554 0006581 293.1795 66.8752 15.31357274 32835